Weather History for KMEH - July, 2013

Change the Weather History Date:

Saturday, July 27, 2013

  Actual Average (KPDT) Record (KPDT)
Temperature  
Mean Temperature 62 °F 74 °F  
Max Temperature 80 °F 90 °F 110 °F (1939)
Min Temperature 45 °F 59 °F 41 °F (1894)
Degree Days  
Heating Degree Days 3 0  
Month to date heating degree days 7  
Since 1 June heating degree days 90  
Since 1 July heating degree days 7  
Cooling Degree Days 0 10  
Month to date cooling degree days 207  
Year to date cooling degree days 309  
Since 1 June cooling degree days 286  
Growing Degree Days 12 (Base 50)    
Moisture  
Dew Point 36 °F    
Average Humidity 45    
Maximum Humidity 82    
Minimum Humidity 15    
Precipitation  
Precipitation 0.00 in 0.01 in 0.10 in (1947)
Month to date precipitation 0.29  
Year to date precipitation 7.68  
Snow  
Snow 0.00 in 0.00 in 0.00 in (2002)
Month to date snowfall 0.0  
Year to date snowfall 7.7  
Since 1 July snowfall 0.0  
Snow Depth -    
Sea Level Pressure  
Sea Level Pressure 30.02 in    
Wind  
Wind Speed 1 mph (North)    
Max Wind Speed 7 mph    
Max Gust Speed -    
Visibility 9 miles    
Events      
T = Trace of Precipitation, MM = Missing Value Source: NWS Daily Summary

Daily Weather History Graph

Daily Weather History Graph

Search for Another Location

Airport or City:

Trip Planner

Search our weather history database for the weather conditions in past years. The results will help you decide how hot, cold, wet, or windy it might be!

Date:

Astronomy

Jul. 27, 2013 Rise Set
Actual Time 5:32 AM PDT 8:27 PM PDT
Civil Twilight 4:57 AM PDT 9:02 PM PDT
Nautical Twilight 4:12 AM PDT 9:46 PM PDT
Astronomical Twilight 3:20 AM PDT 10:38 PM PDT
Moon 10:55 PM PDT (7/27) 11:38 AM PDT (7/27)
Length of Visible Light 16h 04m
Length of Day
14h 55m
Waning Gibbous, 70% of the Moon is Illuminated
Jul 27
Waning Gibbous
Jul 29
Last Quarter
Aug 6
New
Aug 14
First Quarter
Aug 20
Full

Hourly Weather History & Observations

Time (PDT) Temp. Dew Point Humidity Pressure Visibility Wind Dir Wind Speed Gust Speed Precip Events Conditions
12:56 AM 54.0 °F 43.0 °F 66% 30.06 in 10.0 mi Calm Calm - N/A   Clear
1:56 AM 53.1 °F 43.0 °F 69% 30.06 in 10.0 mi Calm Calm - N/A   Clear
2:56 AM 52.0 °F 43.0 °F 71% 30.06 in 10.0 mi Calm Calm - N/A   Clear
3:56 AM 50.0 °F 42.1 °F 74% 30.06 in 10.0 mi Calm Calm - N/A   Clear
4:56 AM 48.0 °F 42.1 °F 80% 30.07 in 10.0 mi Calm Calm - N/A   Clear
5:56 AM 45.0 °F 39.9 °F 82% 30.10 in 10.0 mi Calm Calm - N/A   Clear
6:56 AM 50.0 °F 42.1 °F 74% 30.08 in 10.0 mi Calm Calm - N/A   Clear
7:56 AM 60.1 °F 46.0 °F 60% 30.06 in 10.0 mi Calm Calm - N/A   Clear
8:56 AM 68.0 °F 35.1 °F 30% 30.06 in 10.0 mi Calm Calm - N/A   Clear
9:56 AM 70.0 °F 34.0 °F 27% 30.06 in 10.0 mi Variable 3.5 mph - N/A   Partly Cloudy
10:56 AM 73.0 °F 34.0 °F 24% 30.06 in 10.0 mi Calm Calm - N/A   Clear
11:56 AM 75.0 °F 30.0 °F 19% 30.05 in 10.0 mi Calm Calm - N/A   Clear
12:56 PM 77.0 °F 28.0 °F 17% 30.03 in 10.0 mi Variable 3.5 mph - N/A   Clear
1:56 PM 78.1 °F 28.0 °F 16% 30.02 in 10.0 mi Variable 6.9 mph - N/A   Clear
2:56 PM 79.0 °F 28.0 °F 15% 30.00 in 10.0 mi Variable 3.5 mph - N/A   Clear
3:56 PM 79.0 °F 28.9 °F 16% 29.99 in 10.0 mi Variable 5.8 mph - N/A   Clear
4:56 PM 78.1 °F 28.9 °F 17% 29.97 in 10.0 mi Variable 3.5 mph - N/A   Clear
5:56 PM 75.0 °F 30.0 °F 19% 29.97 in 10.0 mi Variable 3.5 mph - N/A   Clear
6:56 PM 73.9 °F 28.0 °F 18% 29.95 in 5.0 mi Calm Calm - N/A   Haze
7:56 PM 66.0 °F 33.1 °F 29% 29.94 in 5.0 mi Calm Calm - N/A   Haze
8:56 PM 57.9 °F 41.0 °F 53% 29.95 in 6.0 mi Calm Calm - N/A   Haze
9:56 PM 52.0 °F 39.9 °F 63% 29.96 in 7.0 mi Calm Calm - N/A   Clear
10:56 PM 48.0 °F 39.0 °F 71% 29.96 in 7.0 mi Calm Calm - N/A   Clear
11:56 PM 45.0 °F 37.9 °F 76% 29.96 in 8.0 mi Calm Calm - N/A   Clear